When you browse on this site, cookies collect data to enhance your experience and personalize the content and advertising you see.
Visit our Privacy Policy to learn more. By continuing to use the site, you agree to this use of cookies and data.
  • In Czech Republic
  • List of Countries
  • For 7 days
  • Water Temperature
  • Weather Map
  • Weather Widgets
  • user-avatar
    Login

    Hourly Weather Frankfurt am Mein

    Today, 6 June, Saturday

    Time Temperature Precipitation Wind Pressure Humidity
    00:00 +5°C° 0 mm 3 mps 710 mmHg 88%
    01:00 +6°C° 0 mm 1 mps 710 mmHg 89%
    02:00 +6°C° 0 mm 2 mps 710 mmHg 90%
    03:00 +6°C° 0 mm 2 mps 710 mmHg 90%
    04:00 +6°C° 0 mm 2 mps 710 mmHg 90%
    05:00 +7°C° 0 mm 3 mps 710 mmHg 87%
    06:00 +8°C° 0 mm 3 mps 710 mmHg 85%
    07:00 +8°C° 0 mm 4 mps 711 mmHg 82%
    08:00 +10°C° 0 mm 4 mps 711 mmHg 75%
    09:00 +10°C° 0 mm 5 mps 711 mmHg 67%
    10:00 +11°C° 0 mm 6 mps 712 mmHg 60%
    11:00 +13°C° 0.2 mm 6 mps 712 mmHg 56%
    12:00 +14°C° 0.2 mm 6 mps 712 mmHg 52%
    13:00 +15°C° 0.2 mm 6 mps 712 mmHg 48%
    14:00 +16°C° 0 mm 6 mps 712 mmHg 46%
    15:00 +16°C° 0 mm 6 mps 712 mmHg 44%
    16:00 +16°C° 0 mm 6 mps 712 mmHg 42%
    17:00 +15°C° 0 mm 5 mps 712 mmHg 46%
    18:00 +14°C° 0 mm 4 mps 712 mmHg 50%
    19:00 +14°C° 0 mm 4 mps 712 mmHg 53%
    20:00 +12°C° 0 mm 3 mps 713 mmHg 58%
    21:00 +11°C° 0 mm 3 mps 713 mmHg 63%
    22:00 +9°C° 0 mm 2 mps 714 mmHg 68%
    23:00 +9°C° 0 mm 2 mps 714 mmHg 70%

    Tomorrow, 7 June, Sunday

    Time Temperature Precipitation Wind Pressure Humidity
    00:00 +9°C° 0 mm 2 mps 714 mmHg 72%
    01:00 +8°C° 0 mm 2 mps 714 mmHg 74%
    02:00 +8°C° 0 mm 2 mps 714 mmHg 76%
    03:00 +7°C° 0 mm 2 mps 714 mmHg 79%
    04:00 +7°C° 0 mm 2 mps 714 mmHg 81%
    05:00 +7°C° 0 mm 3 mps 714 mmHg 74%
    06:00 +7°C° 0 mm 4 mps 715 mmHg 68%
    07:00 +8°C° 0 mm 4 mps 715 mmHg 61%
    08:00 +11°C° 0 mm 4 mps 715 mmHg 58%
    09:00 +12°C° 0 mm 4 mps 716 mmHg 55%
    10:00 +14°C° 0 mm 4 mps 716 mmHg 53%
    11:00 +14°C° 0 mm 4 mps 716 mmHg 52%
    12:00 +16°C° 0 mm 3 mps 716 mmHg 51%
    13:00 +16°C° 0 mm 3 mps 717 mmHg 51%
    14:00 +16°C° 0 mm 3 mps 717 mmHg 50%
    15:00 +17°C° 0 mm 2 mps 717 mmHg 50%
    16:00 +17°C° 0 mm 2 mps 717 mmHg 49%
    17:00 +16°C° 0 mm 2 mps 717 mmHg 53%
    18:00 +16°C° 0 mm 2 mps 717 mmHg 57%
    19:00 +16°C° 0 mm 1 mps 717 mmHg 62%
    20:00 +14°C° 0 mm 1 mps 717 mmHg 66%
    21:00 +12°C° 0 mm 1 mps 718 mmHg 71%
    22:00 +10°C° 0 mm 1 mps 718 mmHg 76%
    23:00 +10°C° 0 mm 1 mps 718 mmHg 78%

    Day after tomorrow, 8 June, Monday

    Time Temperature Precipitation Wind Pressure Humidity
    00:00 +9°C° 0 mm 1 mps 718 mmHg 79%
    01:00 +8°C° 0 mm 1 mps 718 mmHg 81%
    02:00 +8°C° 0 mm 1 mps 718 mmHg 82%
    03:00 +7°C° 0 mm 0 mps 718 mmHg 83%
    04:00 +6°C° 0 mm 0 mps 718 mmHg 84%
    05:00 +8°C° 0 mm 0 mps 719 mmHg 79%
    06:00 +9°C° 0 mm 0 mps 719 mmHg 74%
    07:00 +11°C° 0 mm 0 mps 719 mmHg 69%
    08:00 +13°C° 0 mm 0 mps 720 mmHg 62%
    09:00 +16°C° 0 mm 1 mps 720 mmHg 56%
    10:00 +19°C° 0 mm 1 mps 721 mmHg 49%
    11:00 +20°C° 0 mm 1 mps 720 mmHg 46%
    12:00 +20°C° 0 mm 1 mps 720 mmHg 43%
    13:00 +21°C° 0 mm 1 mps 720 mmHg 40%
    14:00 +20°C° 0 mm 2 mps 720 mmHg 42%
    15:00 +20°C° 0 mm 2 mps 720 mmHg 44%
    16:00 +19°C° 0 mm 2 mps 720 mmHg 46%
    17:00 +19°C° 0 mm 2 mps 720 mmHg 50%
    18:00 +19°C° 0 mm 1 mps 720 mmHg 55%
    19:00 +19°C° 0 mm 1 mps 720 mmHg 59%
    20:00 +16°C° 0 mm 1 mps 720 mmHg 66%
    21:00 +14°C° 0 mm 1 mps 721 mmHg 73%
    22:00 +12°C° 0 mm 2 mps 721 mmHg 80%
    23:00 +10°C° 0 mm 2 mps 721 mmHg 83%

    9 June, Tuesday

    Time Temperature Precipitation Wind Pressure Humidity
    00:00 +10°C° 0 mm 2 mps 721 mmHg 86%
    01:00 +9°C° 0 mm 2 mps 721 mmHg 89%
    02:00 +9°C° 0 mm 2 mps 721 mmHg 90%
    03:00 +8°C° 0 mm 2 mps 721 mmHg 92%
    04:00 +8°C° 0 mm 2 mps 721 mmHg 93%
    05:00 +9°C° 0 mm 2 mps 721 mmHg 90%
    06:00 +10°C° 0 mm 2 mps 722 mmHg 87%
    07:00 +12°C° 0 mm 2 mps 722 mmHg 85%
    08:00 +13°C° 0 mm 2 mps 722 mmHg 78%
    09:00 +14°C° 0 mm 3 mps 722 mmHg 71%
    10:00 +17°C° 0 mm 3 mps 723 mmHg 64%
    11:00 +18°C° 0.1 mm 3 mps 723 mmHg 61%
    12:00 +19°C° 0.1 mm 3 mps 722 mmHg 58%
    13:00 +20°C° 0.1 mm 3 mps 722 mmHg 55%
    14:00 +20°C° 0.2 mm 3 mps 722 mmHg 56%
    15:00 +20°C° 0.2 mm 4 mps 722 mmHg 57%
    16:00 +20°C° 0.2 mm 4 mps 722 mmHg 58%
    17:00 +19°C° 0.2 mm 4 mps 722 mmHg 64%
    18:00 +18°C° 0.2 mm 4 mps 722 mmHg 69%
    19:00 +17°C° 0.2 mm 4 mps 722 mmHg 75%
    20:00 +16°C° 0 mm 3 mps 722 mmHg 78%
    21:00 +13°C° 0 mm 3 mps 722 mmHg 80%
    22:00 +12°C° 0 mm 3 mps 723 mmHg 83%
    23:00 +12°C° 0 mm 3 mps 723 mmHg 85%

    10 June, Wednesday

    Time Temperature Precipitation Wind Pressure Humidity
    00:00 +11°C° 0 mm 3 mps 723 mmHg 87%
    01:00 +12°C° 0 mm 2 mps 723 mmHg 88%
    02:00 +10°C° 0 mm 2 mps 723 mmHg 89%
    03:00 +9°C° 0 mm 2 mps 723 mmHg 89%
    04:00 +9°C° 0 mm 2 mps 723 mmHg 90%
    05:00 +10°C° 0 mm 2 mps 723 mmHg 87%
    06:00 +10°C° 0 mm 2 mps 723 mmHg 84%
    07:00 +12°C° 0 mm 2 mps 724 mmHg 80%
    08:00 +13°C° 0 mm 3 mps 724 mmHg 76%
    09:00 +16°C° 0 mm 3 mps 724 mmHg 71%
    10:00 +17°C° 0 mm 4 mps 724 mmHg 66%
    11:00 +18°C° 0.2 mm 4 mps 724 mmHg 64%
    12:00 +19°C° 0.2 mm 4 mps 724 mmHg 61%
    13:00 +20°C° 0.2 mm 4 mps 724 mmHg 59%
    14:00 +20°C° 0.3 mm 4 mps 724 mmHg 59%
    15:00 +20°C° 0.3 mm 4 mps 724 mmHg 59%
    16:00 +20°C° 0.3 mm 4 mps 724 mmHg 59%
    17:00 +20°C° 0.2 mm 4 mps 724 mmHg 64%
    18:00 +19°C° 0.2 mm 4 mps 724 mmHg 68%
    19:00 +18°C° 0.2 mm 4 mps 724 mmHg 72%
    20:00 +16°C° 0 mm 3 mps 724 mmHg 77%
    21:00 +14°C° 0 mm 3 mps 724 mmHg 81%
    22:00 +12°C° 0 mm 3 mps 725 mmHg 85%
    23:00 +12°C° 0 mm 3 mps 725 mmHg 87%

    11 June, Thursday

    Time Temperature Precipitation Wind Pressure Humidity
    00:00 +12°C° 0 mm 2 mps 725 mmHg 89%
    01:00 +10°C° 0 mm 2 mps 724 mmHg 90%
    02:00 +9°C° 0 mm 2 mps 724 mmHg 90%
    03:00 +9°C° 0 mm 2 mps 724 mmHg 91%
    04:00 +8°C° 0 mm 2 mps 724 mmHg 91%
    05:00 +9°C° 0 mm 2 mps 724 mmHg 88%
    06:00 +10°C° 0 mm 2 mps 725 mmHg 86%
    07:00 +12°C° 0 mm 2 mps 725 mmHg 83%
    08:00 +13°C° 0 mm 3 mps 725 mmHg 76%
    09:00 +16°C° 0 mm 3 mps 725 mmHg 68%
    10:00 +17°C° 0 mm 3 mps 725 mmHg 61%
    11:00 +18°C° 0 mm 3 mps 725 mmHg 57%
    12:00 +19°C° 0 mm 3 mps 724 mmHg 53%
    13:00 +20°C° 0 mm 4 mps 724 mmHg 49%
    14:00 +20°C° 0 mm 4 mps 724 mmHg 49%
    15:00 +20°C° 0 mm 4 mps 723 mmHg 48%
    16:00 +20°C° 0 mm 4 mps 723 mmHg 47%
    17:00 +19°C° 0 mm 4 mps 723 mmHg 52%
    18:00 +18°C° 0 mm 4 mps 722 mmHg 57%
    19:00 +17°C° 0 mm 4 mps 722 mmHg 62%
    20:00 +16°C° 0 mm 3 mps 722 mmHg 67%
    21:00 +13°C° 0 mm 3 mps 722 mmHg 72%
    22:00 +12°C° 0 mm 2 mps 722 mmHg 77%
    23:00 +12°C° 0 mm 2 mps 722 mmHg 81%
    Show more